[[{"header":{"parameterUnit":"m.s-1","parameterCategory":2,"la1":30.2991,"la2":30.254,"lo1":-89.0895,"lo2":-89.0444,"dy":0.0017,"dx":0.0017,"nx":28,"ny":28,"refTime":"2025-06-16T21:00:00:Z","depth":"0","parameterNumber":2,"parameterNumberName":"U-component_of_CURRENTS"},"data":[0,0,0,0,0,0,0,0,0,0,0,0,0,0,0,0,0,0,0,0,0,0,0,0,0,0,0,0,0,0,0,0,0,0,0,0,0,0,0,0,0,0,0,0,0,0,0,0,0,0,0,0,0,0,0,0,0,0,0.1887,0.1887,0,0.192,0.192,0.192,0.1917,0.1917,0.1916,0.1916,0.1929,0.193,0.1931,0,0,0,0,0,0,0,0,0,0,0,0,0,0.1816,0.1817,0.1887,0.1887,0.1888,0.1919,0.192,0.192,0.1917,0.1917,0.1916,0.1916,0.1929,0.193,0.1931,0,0,0,0,0,0,0,0,0,0,0,0,0,0.1846,0.1817,0.1887,0.1891,0.1892,0.1919,0.192,0.192,0.1917,0.1917,0.1916,0.1916,0.1929,0.193,0.1931,0.195,0,0,0.1934,0.1935,0,0,0,0,0,0,0,0,0.1845,0.1849,0.189,0.1891,0.1892,0.1915,0.19,0.1929,0.1918,0.1907,0.1916,0.1915,0.1924,0.1925,0.1931,0.195,0.1951,0.1934,0.1935,0.1935,0.1936,0,0,0,0,0,0,0,0.1843,0.1847,0.1899,0.1891,0.1892,0.1889,0.1893,0.1905,0.1917,0.1907,0.1908,0.1913,0.1924,0.193,0.1932,0.1951,0.1934,0.1935,0.1936,0.1936,0.2004,0.2005,0,0,0,0,0,0,0.1842,0.1846,0.1898,0.19,0.1867,0.1891,0.1895,0.1907,0.1917,0.1919,0.1914,0.1913,0.1929,0.193,0.1932,0.1979,0.1935,0.1936,0.1937,0.2003,0.2004,0.2005,0,0,0,0,0,0,0.184,0.1847,0.1896,0.1874,0.188,0.1893,0.1906,0.1908,0.1919,0.1922,0.1923,0.1924,0.1928,0.193,0.1959,0.1978,0.1937,0.1938,0.2001,0.2003,0.2005,0.2056,0,0,0,0,0,0,0.1838,0.1846,0.1855,0.1874,0.1881,0.1918,0.1907,0.1909,0.1924,0.1923,0.1931,0.1932,0.1928,0.1958,0.196,0.1979,0.1939,0.2,0.2002,0.2004,0.2053,0.206,0.2065,0,0,0,0,0,0.1836,0.1855,0.1856,0.1862,0.1894,0.1918,0.1922,0.1928,0.1925,0.1935,0.1948,0.1932,0.1973,0.196,0.1963,0.1982,0.1999,0.2002,0.2004,0.2051,0.2058,0.2065,0,0,0,0,0,0,0.1831,0.1857,0.1858,0.1885,0.1901,0.1918,0.1932,0.1935,0.1953,0.1953,0.1953,0.1955,0.1991,0.1979,0.1965,0.2007,0.1981,0.1984,0.2015,0.2023,0.2028,0.2032,0.1939,0,0,0,0,0,0.1834,0.1855,0.1875,0.1896,0.1907,0.192,0.1931,0.1935,0.1953,0.196,0.1966,0.1977,0.2004,0.2007,0.2025,0.2046,0.2066,0.2058,0.2064,0.2069,0.2075,0.2133,0.2145,0.2014,0.2014,0.2014,0,0,0.1838,0.1856,0.1867,0.1896,0.191,0.1926,0.1925,0.1948,0.1962,0.1959,0.1984,0.2005,0.2018,0.205,0.2062,0.204,0.212,0.2072,0.2077,0.2079,0.2137,0.215,0.2161,0.2016,0.2015,0.2015,0,0,0.185,0.1874,0.1888,0.1904,0.1927,0.1938,0.1946,0.1967,0.1979,0.2006,0.2019,0.2055,0.2071,0.2095,0.2108,0.2157,0.216,0.2154,0.2176,0.2233,0.2244,0.2255,0.231,0.2325,0.2144,0.2144,0.2144,0,0.1849,0.1871,0.1895,0.1911,0.1927,0.1944,0.1959,0.1979,0.2005,0.2026,0.2016,0.2088,0.2095,0.2157,0.2171,0.2171,0.2202,0.2148,0.2242,0.2252,0.2262,0.2317,0.2332,0.2147,0.2146,0.2146,0.2146,0,0.1862,0.1883,0.1897,0.1921,0.1943,0.1963,0.1991,0.2014,0.2029,0.2049,0.2114,0.2144,0.2183,0.2194,0.2195,0.227,0.2272,0.2255,0.2225,0.2279,0.2332,0.2348,0.2151,0.215,0.2149,0.2148,0,0,0.1855,0.1895,0.1899,0.191,0.195,0.1966,0.2007,0.2048,0.2079,0.2114,0.2167,0.2221,0.2245,0.2262,0.2281,0.2322,0.242,0.2313,0.2315,0.2371,0.2554,0.2548,0.2564,0.2422,0.2424,0.2426,0.2569,0,0.1854,0.1875,0.1903,0.1929,0.1945,0.1984,0.2018,0.2061,0.2102,0.2158,0.2216,0.2272,0.2269,0.2299,0.2347,0.2406,0.2461,0.2383,0.2491,0.2495,0.2485,0.2582,0.2492,0.2612,0.2584,0.2587,0.2589,0,0.1857,0.1871,0.1888,0.1934,0.1945,0.1961,0.2027,0.2062,0.215,0.2187,0.2263,0.2312,0.2405,0.2384,0.2521,0.2473,0.2521,0.2558,0.2564,0.2549,0.2517,0.2551,0.264,0.2499,0.2612,0.2611,0.2609,0,0.1834,0.1867,0.1878,0.1891,0.1939,0.1959,0.199,0.2066,0.2108,0.2215,0.2261,0.2375,0.2436,0.2522,0.2607,0.2573,0.2752,0.2712,0.2758,0.2758,0.2698,0.2688,0.2664,0.2816,0.2815,0.2815,0.2815,0,0.1828,0.1839,0.1861,0.1866,0.1884,0.1933,0.1972,0.2025,0.2113,0.2174,0.2273,0.2356,0.2473,0.2587,0.2649,0.2768,0.2795,0.2795,0.2807,0.2714,0.2704,0.2589,0.2563,0.282,0.2819,0.2818,0.2817,0,0.1805,0.1822,0.1835,0.1866,0.1872,0.1886,0.1943,0.198,0.2066,0.2156,0.2197,0.2362,0.2523,0.2643,0.2797,0.282,0.2854,0.2958,0.2845,0.2841,0.2726,0.2709,0.2676,0.2617,0.3036,0.3037,0.3038,0,0.1794,0.1794,0.1813,0.1814,0.1824,0.1845,0.1865,0.1944,0.1991,0.2162,0.221,0.2401,0.253,0.2768,0.288,0.3022,0.2904,0.2982,0.2896,0.2736,0.2725,0.2604,0.2546,0.2845,0.2844,0.2843,0.2843,0,0.1767,0.1771,0.1775,0.1777,0.1786,0.1795,0.1832,0.1859,0.1971,0.2055,0.2199,0.2322,0.2586,0.2699,0.2887,0.2972,0.2824,0.297,0.2834,0.2614,0.2453,0.2394,0.2731,0.2836,0.2837,0.2837,0.2838,0.2838,0.174,0.1735,0.1738,0.1735,0.1742,0.1743,0.1738,0.1792,0.1855,0.196,0.2122,0.2246,0.2441,0.2717,0.2768,0.2778,0.282,0.2704,0.2714,0.2615,0.2496,0.2825,0.2916,0.2917,0.2918,0.2919,0.292,0,0.171,0.1706,0.1698,0.1691,0.1672,0.1692,0.1712,0.1703,0.1745,0.1856,0.1962,0.2119,0.2252,0.2393,0.2537,0.2488,0.2383,0.2444,0.2225,0.2197,0.2514,0.2437,0.239,0.2391,0.2391,0.2391,0.2391,0.2391,0.1693,0.1676,0.1666,0.1618,0.1606,0.1565,0.1559,0.1566,0.1614,0.1676,0.1739,0.1847,0.2087,0.2239,0.2236,0.2213,0.2017,0.1993,0.1978,0.2152,0.2173,0.2194,0.2108,0.1993,0.1993,0.1531,0.1528,0.1526]},{"header":{"parameterUnit":"m.s-1","parameterCategory":2,"la1":30.2991,"la2":30.254,"lo1":-89.0895,"lo2":-89.0444,"dy":0.0017,"dx":0.0017,"nx":28,"ny":28,"refTime":"2025-06-16T21:00:00:Z","depth":"0","parameterNumber":3,"parameterNumberName":"V-component_of_CURRENTS"},"data":[0,0,0,0,0,0,0,0,0,0,0,0,0,0,0,0,0,0,0,0,0,0,0,0,0,0,0,0,0,0,0,0,0,0,0,0,0,0,0,0,0,0,0,0,0,0,0,0,0,0,0,0,0,0,0,0,0,0,0.0745,0.0745,0,0.0703,0.0702,0.0701,0.066,0.0659,0.0659,0.0659,0.0568,0.0566,0.0563,0,0,0,0,0,0,0,0,0,0,0,0,0,0.0727,0.0728,0.0745,0.0745,0.0744,0.0703,0.0702,0.0701,0.066,0.0659,0.0659,0.0659,0.0569,0.0566,0.0563,0,0,0,0,0,0,0,0,0,0,0,0,0,0.0712,0.0728,0.0745,0.0722,0.0719,0.0703,0.0702,0.0701,0.066,0.0659,0.0659,0.0659,0.0569,0.0566,0.0563,0.0548,0,0,0.0553,0.0551,0,0,0,0,0,0,0,0,0.0713,0.0712,0.0725,0.0723,0.0721,0.069,0.0663,0.0649,0.066,0.0678,0.0659,0.0659,0.0607,0.06,0.0588,0.0544,0.054,0.0552,0.055,0.0549,0.0548,0,0,0,0,0,0,0,0.0714,0.0713,0.0724,0.0725,0.0722,0.0692,0.069,0.0659,0.0641,0.0677,0.0675,0.0676,0.0604,0.0592,0.0586,0.0539,0.0552,0.0549,0.0547,0.0546,0.0483,0.0483,0,0,0,0,0,0,0.073,0.0715,0.0726,0.0724,0.072,0.0693,0.069,0.0697,0.0642,0.0635,0.0676,0.0674,0.0598,0.059,0.0582,0.0581,0.0549,0.0546,0.0544,0.0483,0.0483,0.0483,0,0,0,0,0,0,0.073,0.0732,0.0728,0.0721,0.0718,0.0695,0.0702,0.0696,0.0687,0.0643,0.0634,0.0674,0.0597,0.0587,0.0575,0.0576,0.0544,0.0541,0.0482,0.0483,0.0483,0.0566,0,0,0,0,0,0,0.073,0.0732,0.0741,0.0722,0.072,0.0725,0.0702,0.0696,0.069,0.0687,0.0638,0.0629,0.0596,0.0581,0.0572,0.0571,0.0538,0.0482,0.0482,0.0483,0.0563,0.0569,0.0575,0,0,0,0,0,0.073,0.0744,0.0742,0.0743,0.0733,0.0726,0.0721,0.07,0.0691,0.069,0.0669,0.0631,0.0577,0.0579,0.0569,0.0567,0.0481,0.0482,0.0483,0.056,0.0568,0.0574,0,0,0,0,0,0,0.0745,0.0741,0.0738,0.0753,0.0744,0.072,0.0722,0.0707,0.0689,0.069,0.0644,0.0634,0.0621,0.0585,0.0588,0.0549,0.0519,0.0518,0.0581,0.0588,0.0594,0.0614,0.0536,0,0,0,0,0,0.0755,0.0764,0.0754,0.0768,0.0767,0.0746,0.0741,0.0729,0.0712,0.0704,0.067,0.0637,0.0614,0.0597,0.0568,0.0552,0.0518,0.054,0.0546,0.0551,0.056,0.0511,0.0513,0.0486,0.0486,0.0486,0,0,0.0768,0.0767,0.0774,0.0772,0.0765,0.077,0.0741,0.0743,0.0747,0.0697,0.069,0.0659,0.0616,0.0602,0.059,0.0573,0.0544,0.0552,0.0557,0.0563,0.0512,0.0514,0.0517,0.0486,0.0486,0.0486,0,0,0.0796,0.0798,0.0812,0.0811,0.0808,0.0794,0.0798,0.0778,0.0768,0.0764,0.0729,0.071,0.0665,0.0639,0.062,0.064,0.058,0.0618,0.0661,0.0613,0.0615,0.0617,0.0594,0.0592,0.0617,0.0618,0.0618,0,0.0804,0.0827,0.0815,0.0828,0.0832,0.0809,0.0824,0.0815,0.0792,0.079,0.0773,0.0723,0.0685,0.0673,0.0679,0.0654,0.0622,0.064,0.0622,0.0622,0.0622,0.0598,0.0595,0.0622,0.0621,0.0621,0.062,0,0.084,0.086,0.0872,0.088,0.0881,0.0892,0.0882,0.088,0.0866,0.085,0.0838,0.0795,0.0765,0.0744,0.072,0.0699,0.0677,0.064,0.0608,0.063,0.0603,0.0599,0.0628,0.0626,0.0625,0.0624,0,0,0.0846,0.0885,0.0888,0.0908,0.091,0.0915,0.093,0.0929,0.0943,0.0915,0.0924,0.0882,0.0856,0.0833,0.0791,0.075,0.0727,0.0699,0.0695,0.0685,0.0636,0.0623,0.0617,0.068,0.0679,0.0678,0.0623,0,0.0872,0.091,0.092,0.0961,0.098,0.0976,0.0993,0.0993,0.0983,0.0986,0.0948,0.0938,0.089,0.088,0.0835,0.0755,0.0716,0.0746,0.0608,0.0605,0.0597,0.0611,0.0663,0.0617,0.0619,0.0618,0.0618,0,0.0901,0.0922,0.0961,0.1008,0.1016,0.1033,0.1055,0.107,0.1071,0.1066,0.1052,0.1021,0.0984,0.0931,0.0816,0.0835,0.0747,0.0678,0.0673,0.0629,0.0583,0.059,0.0609,0.0471,0.061,0.0611,0.0611,0,0.0909,0.0956,0.0986,0.1,0.104,0.1059,0.1078,0.1089,0.1109,0.1117,0.1131,0.108,0.1058,0.0949,0.0831,0.0813,0.0698,0.065,0.056,0.0558,0.056,0.0559,0.0435,0.0559,0.0559,0.0559,0.056,0,0.0931,0.096,0.0994,0.1015,0.1053,0.108,0.1118,0.1136,0.1165,0.1196,0.1173,0.1188,0.1055,0.0983,0.0859,0.0715,0.0719,0.0577,0.0541,0.0591,0.0595,0.0439,0.0387,0.0557,0.0558,0.0558,0.0559,0,0.0938,0.0961,0.1006,0.1051,0.106,0.1091,0.1143,0.1177,0.1207,0.125,0.126,0.1252,0.1172,0.1045,0.0874,0.0753,0.0568,0.0557,0.0643,0.0618,0.0392,0.0345,0.0253,0.023,0.0443,0.0443,0.0442,0,0.0943,0.0966,0.102,0.1044,0.1064,0.1105,0.1137,0.1183,0.1223,0.1292,0.1319,0.1284,0.1277,0.1061,0.0855,0.0657,0.0556,0.0548,0.0512,0.0393,0.0314,0.0313,0.0301,0.0554,0.0554,0.0554,0.0555,0,0.0949,0.097,0.1001,0.1049,0.1086,0.1133,0.1186,0.1224,0.1291,0.135,0.142,0.1434,0.1272,0.1117,0.0859,0.072,0.0511,0.0545,0.0393,0.0372,0.0393,0.0351,0.0587,0.0558,0.0557,0.0557,0.0557,0.0557,0.0943,0.0966,0.1008,0.1055,0.1097,0.1158,0.12,0.1274,0.1356,0.1453,0.1482,0.152,0.1316,0.099,0.0799,0.046,0.0489,0.0356,0.0307,0.0313,0.03,0.0554,0.0495,0.0494,0.0494,0.0493,0.0493,0,0.0934,0.0967,0.1012,0.1072,0.112,0.1147,0.1229,0.1286,0.1389,0.1484,0.156,0.1489,0.1217,0.0917,0.0486,0.0258,0.0219,0.0142,0.0141,0.0136,0.0326,0.0335,0.0275,0.0275,0.0275,0.0275,0.0276,0.0276,0.0926,0.0963,0.0994,0.1067,0.1116,0.1177,0.1225,0.1326,0.1406,0.152,0.1554,0.1599,0.1422,0.064,0.0129,0.002,-0.0121,-0.0098,-0.0203,-0.0107,-0.0091,-0.0076,-0.0084,-0.023,-0.0231,-0.0324,-0.0325,-0.0327]}],[{"header":{"parameterUnit":"m.s-1","parameterCategory":2,"la1":30.2991,"la2":30.254,"lo1":-89.0895,"lo2":-89.0444,"dy":0.0017,"dx":0.0017,"nx":28,"ny":28,"refTime":"2025-06-16T21:00:00:Z","depth":"2","parameterNumber":2,"parameterNumberName":"U-component_of_CURRENTS"},"data":[0,0,0,0,0,0,0,0,0,0,0,0,0,0,0,0,0,0,0,0,0,0,0,0,0,0,0,0,0,0,0,0,0,0,0,0,0,0,0,0,0,0,0,0,0,0,0,0,0,0,0,0,0,0,0,0,0,0,0.1683,0.1682,0,0.1678,0.1678,0.1679,0.1772,0.1773,0.1775,0.1776,0.1861,0.1862,0.1862,0,0,0,0,0,0,0,0,0,0,0,0,0,0.1677,0.1678,0.1683,0.1682,0.1681,0.1677,0.1678,0.1679,0.1771,0.1773,0.1775,0.1777,0.1861,0.1862,0.1862,0,0,0,0,0,0,0,0,0,0,0,0,0,0.1685,0.1678,0.1683,0.172,0.1723,0.1677,0.1678,0.1679,0.1771,0.1773,0.1776,0.1778,0.1861,0.1862,0.1863,0.1819,0,0,0.1866,0.1866,0,0,0,0,0,0,0,0,0.1685,0.1687,0.1715,0.1717,0.172,0.172,0.1707,0.1727,0.177,0.1762,0.1777,0.1779,0.1814,0.1819,0.1824,0.1823,0.1826,0.1866,0.1866,0.1867,0.1867,0,0,0,0,0,0,0,0.1684,0.1687,0.169,0.1714,0.1717,0.1703,0.1709,0.1711,0.1783,0.1763,0.1767,0.1752,0.1818,0.1823,0.1827,0.1827,0.1866,0.1867,0.1867,0.1868,0.1925,0.1926,0,0,0,0,0,0,0.1669,0.1687,0.169,0.1689,0.1698,0.1701,0.1708,0.1725,0.1781,0.1789,0.1749,0.1756,0.182,0.1826,0.183,0.1899,0.1867,0.1868,0.1868,0.1924,0.1926,0.1927,0,0,0,0,0,0,0.167,0.1671,0.169,0.1678,0.1679,0.1698,0.1716,0.1723,0.1761,0.1768,0.178,0.1783,0.1822,0.1829,0.1872,0.1899,0.1868,0.1869,0.1923,0.1925,0.1926,0.1962,0,0,0,0,0,0,0.167,0.1672,0.168,0.1678,0.1679,0.1701,0.1713,0.1721,0.1741,0.175,0.1799,0.1808,0.1825,0.187,0.1873,0.19,0.187,0.1922,0.1924,0.1926,0.1959,0.1964,0.1968,0,0,0,0,0,0.167,0.1686,0.1682,0.1681,0.1691,0.1701,0.1703,0.1728,0.174,0.177,0.1801,0.1809,0.1883,0.1872,0.1875,0.1903,0.1921,0.1924,0.1926,0.1957,0.1963,0.1968,0,0,0,0,0,0,0.1696,0.1695,0.1692,0.1709,0.1713,0.1715,0.1731,0.1736,0.1779,0.1798,0.1814,0.1825,0.1882,0.1877,0.1863,0.1924,0.1905,0.1908,0.1928,0.1934,0.1938,0.1946,0.1871,0,0,0,0,0,0.1695,0.1711,0.1704,0.1718,0.1724,0.1726,0.173,0.1748,0.1772,0.1796,0.1822,0.1851,0.1882,0.1898,0.1929,0.1943,0.1949,0.1965,0.1969,0.1973,0.1982,0.2025,0.2034,0.1933,0.1933,0.1933,0,0,0.17,0.1703,0.1709,0.1722,0.1731,0.1737,0.1742,0.1766,0.178,0.1793,0.1843,0.1875,0.1894,0.1936,0.1958,0.1939,0.2,0.1976,0.1979,0.1985,0.2028,0.2038,0.2046,0.1935,0.1934,0.1934,0,0,0.1713,0.1735,0.1744,0.1763,0.1771,0.1763,0.1773,0.1791,0.1822,0.1853,0.1877,0.1921,0.1956,0.1978,0.199,0.2026,0.2034,0.2041,0.2056,0.2098,0.2107,0.2115,0.2114,0.2122,0.2029,0.2029,0.2029,0,0.1712,0.1734,0.1748,0.1771,0.1777,0.1777,0.1788,0.1809,0.1839,0.1863,0.1886,0.1965,0.1976,0.2022,0.204,0.2038,0.2054,0.2035,0.2105,0.2113,0.212,0.2118,0.2126,0.2031,0.2031,0.203,0.203,0,0.1731,0.1757,0.1775,0.1793,0.1802,0.1825,0.1834,0.1854,0.1875,0.1902,0.1983,0.2016,0.2064,0.2071,0.2065,0.2123,0.2114,0.2117,0.2092,0.2133,0.2127,0.2135,0.2034,0.2033,0.2032,0.2032,0,0,0.1718,0.1769,0.1779,0.1793,0.1823,0.1828,0.1847,0.1865,0.1894,0.1956,0.2013,0.2068,0.2114,0.2129,0.2142,0.2164,0.2212,0.2162,0.2163,0.2162,0.2289,0.2097,0.2087,0.2241,0.2243,0.2245,0.2255,0,0.1726,0.1748,0.1779,0.1805,0.1817,0.1838,0.1862,0.1889,0.1925,0.1986,0.2048,0.2116,0.2129,0.216,0.22,0.2204,0.2239,0.2207,0.2249,0.2249,0.2075,0.2091,0.1965,0.1948,0.2263,0.2264,0.2265,0,0.1738,0.1749,0.1763,0.1812,0.1825,0.184,0.1865,0.1898,0.1975,0.2018,0.2103,0.2161,0.2209,0.2226,0.2285,0.2271,0.2297,0.2301,0.2302,0.2119,0.2072,0.1963,0.195,0.2278,0.2277,0.2276,0.2275,0,0.1706,0.1749,0.1747,0.1771,0.1816,0.1831,0.1853,0.1911,0.1949,0.204,0.2086,0.2181,0.2231,0.2282,0.2296,0.2302,0.2355,0.2358,0.222,0.2206,0.2099,0.207,0.2438,0.2438,0.2438,0.2438,0.2438,0,0.1709,0.1721,0.1736,0.1756,0.1772,0.1822,0.1862,0.19,0.1977,0.2042,0.2121,0.2156,0.2257,0.2298,0.2313,0.2263,0.2375,0.2219,0.2199,0.2101,0.2073,0.2366,0.2358,0.2438,0.2438,0.2438,0.2438,0,0.1688,0.17,0.1718,0.1757,0.1765,0.1786,0.1847,0.1878,0.1958,0.2036,0.2066,0.2145,0.2172,0.2248,0.2302,0.225,0.2229,0.2207,0.2052,0.2009,0.205,0.2044,0.2027,0.202,0.2015,0.201,0.2006,0,0.1677,0.1672,0.1705,0.1709,0.1731,0.1758,0.1776,0.1852,0.1889,0.2001,0.2031,0.2092,0.2053,0.2024,0.1972,0.1935,0.2129,0.1825,0.1793,0.2028,0.2011,0.2013,0.2014,0.1679,0.1673,0.1668,0.1664,0,0.1644,0.1653,0.1661,0.168,0.1694,0.1706,0.1748,0.1763,0.1871,0.1882,0.1886,0.1838,0.1807,0.166,0.1623,0.1591,0.1798,0.1709,0.2044,0.1765,0.169,0.1676,0.1692,0.1618,0.1622,0.1626,0.1628,0.163,0.1617,0.1614,0.1629,0.1636,0.165,0.166,0.1656,0.1697,0.1694,0.1706,0.1679,0.1563,0.1497,0.1282,0.1263,0.1319,0.1386,0.1414,0.1436,0.1463,0.1382,0.1298,0.1136,0.1138,0.114,0.1141,0.1142,0,0.1571,0.1581,0.158,0.1597,0.1586,0.1619,0.1633,0.1598,0.1567,0.1529,0.1433,0.1147,0.0997,0.1074,0.1022,0.094,0.0991,0.1004,0.1129,0.1169,0.1206,0.1122,0.0803,0.0803,0.0803,0.0802,0,0,0.1556,0.1538,0.1529,0.1506,0.1525,0.1489,0.1482,0.1446,0.1411,0.1199,0.1096,0.0935,0.0958,0.0851,0.0817,0.0864,0.1032,0.0834,0.1092,0.1277,0.1315,0.1402,0.1308,0,0,0,0,0]},{"header":{"parameterUnit":"m.s-1","parameterCategory":2,"la1":30.2991,"la2":30.254,"lo1":-89.0895,"lo2":-89.0444,"dy":0.0017,"dx":0.0017,"nx":28,"ny":28,"refTime":"2025-06-16T21:00:00:Z","depth":"2","parameterNumber":3,"parameterNumberName":"V-component_of_CURRENTS"},"data":[0,0,0,0,0,0,0,0,0,0,0,0,0,0,0,0,0,0,0,0,0,0,0,0,0,0,0,0,0,0,0,0,0,0,0,0,0,0,0,0,0,0,0,0,0,0,0,0,0,0,0,0,0,0,0,0,0,0,0.0387,0.0386,0,0.032,0.032,0.0319,0.0383,0.0386,0.0388,0.039,0.0386,0.0384,0.0382,0,0,0,0,0,0,0,0,0,0,0,0,0,0.0442,0.0442,0.0387,0.0386,0.0384,0.032,0.032,0.0319,0.0383,0.0386,0.0388,0.0391,0.0387,0.0384,0.0382,0,0,0,0,0,0,0,0,0,0,0,0,0,0.0406,0.0442,0.0387,0.0405,0.0406,0.032,0.032,0.0319,0.0383,0.0386,0.0389,0.0392,0.0387,0.0384,0.0381,0.0298,0,0,0.0372,0.037,0,0,0,0,0,0,0,0,0.0408,0.0404,0.0404,0.0404,0.0404,0.0359,0.0337,0.0314,0.0382,0.0396,0.039,0.0393,0.0377,0.0375,0.0361,0.0298,0.0298,0.0371,0.037,0.0368,0.0367,0,0,0,0,0,0,0,0.0411,0.0407,0.0365,0.0402,0.0402,0.0372,0.0372,0.0333,0.0375,0.0395,0.0399,0.0382,0.0379,0.0364,0.0362,0.0298,0.0372,0.0369,0.0367,0.0366,0.0291,0.029,0,0,0,0,0,0,0.0412,0.041,0.0367,0.0363,0.0408,0.0369,0.0369,0.0374,0.0374,0.0375,0.038,0.0386,0.0368,0.0365,0.0362,0.039,0.0368,0.0365,0.0364,0.0291,0.0291,0.029,0,0,0,0,0,0,0.0414,0.041,0.037,0.038,0.0372,0.0365,0.037,0.0371,0.0396,0.036,0.0365,0.0408,0.037,0.0366,0.0357,0.0386,0.0364,0.0361,0.0291,0.0291,0.029,0.0364,0,0,0,0,0,0,0.0416,0.0411,0.0419,0.0381,0.0372,0.0361,0.0366,0.0367,0.0376,0.0385,0.0384,0.0385,0.0373,0.0361,0.0353,0.0381,0.0359,0.0291,0.0291,0.0291,0.0362,0.0367,0.0371,0,0,0,0,0,0.0419,0.0426,0.042,0.0414,0.0382,0.0361,0.0356,0.0362,0.0375,0.0396,0.0384,0.0388,0.0355,0.0358,0.0349,0.0377,0.0291,0.0291,0.0291,0.036,0.0366,0.0371,0,0,0,0,0,0,0.0468,0.0431,0.0425,0.0425,0.0409,0.0372,0.0382,0.0374,0.0377,0.0399,0.0371,0.037,0.0381,0.0351,0.0355,0.0352,0.0328,0.0326,0.0384,0.0389,0.0393,0.0405,0.0356,0,0,0,0,0,0.0472,0.0472,0.0433,0.044,0.0435,0.041,0.0401,0.0408,0.0395,0.0403,0.0389,0.0375,0.0359,0.0357,0.034,0.0319,0.0272,0.0333,0.0338,0.0342,0.0343,0.0283,0.0282,0.0289,0.0289,0.0289,0,0,0.0488,0.0471,0.0469,0.0448,0.044,0.0435,0.0418,0.0429,0.0433,0.0396,0.041,0.0392,0.0358,0.0355,0.0357,0.0342,0.0313,0.0341,0.0345,0.0344,0.0282,0.0282,0.0281,0.0289,0.0289,0.0289,0,0,0.0514,0.0516,0.0516,0.0524,0.0513,0.0478,0.0489,0.0466,0.0478,0.0473,0.045,0.0436,0.0419,0.0387,0.0371,0.0375,0.0342,0.0388,0.0416,0.0358,0.0357,0.0356,0.0292,0.0284,0.0386,0.0386,0.0386,0,0.0525,0.0543,0.0516,0.054,0.0541,0.0505,0.0516,0.0508,0.0486,0.0478,0.0506,0.046,0.0432,0.04,0.0411,0.0388,0.0351,0.0405,0.0365,0.0362,0.036,0.0295,0.0285,0.0389,0.0389,0.0389,0.0388,0,0.0564,0.0589,0.0606,0.0606,0.0594,0.0618,0.0586,0.0572,0.057,0.056,0.0562,0.0524,0.0502,0.0488,0.0456,0.0422,0.04,0.0383,0.0357,0.0364,0.0294,0.0283,0.0394,0.0393,0.0392,0.0391,0,0,0.0564,0.061,0.0624,0.0648,0.0647,0.0639,0.0622,0.0585,0.0591,0.0594,0.0602,0.0568,0.0571,0.0548,0.0508,0.0448,0.0391,0.0418,0.0413,0.0364,0.0265,0.0196,0.0177,0.0378,0.0376,0.0375,0.0223,0,0.0602,0.064,0.0652,0.0695,0.0708,0.0684,0.0681,0.0654,0.0634,0.0636,0.0607,0.0615,0.0592,0.0593,0.0541,0.042,0.0366,0.0433,0.0257,0.0251,0.0197,0.0163,0.023,0.0095,0.0212,0.021,0.0208,0,0.0643,0.0659,0.0694,0.074,0.0748,0.0763,0.0726,0.0738,0.071,0.0712,0.0705,0.069,0.0615,0.0611,0.0438,0.0489,0.0395,0.0303,0.0295,0.0197,0.0162,0.0106,0.007,0.0189,0.0191,0.0192,0.0193,0,0.0643,0.0701,0.0718,0.0748,0.0774,0.0781,0.0788,0.076,0.0767,0.0759,0.0762,0.0707,0.0687,0.0558,0.0383,0.0413,0.0181,0.0194,0.0045,0.0038,0.004,0.0036,0.0083,0.0084,0.0084,0.0084,0.0085,0,0.0685,0.0714,0.0733,0.0773,0.0803,0.0828,0.086,0.0852,0.0855,0.0885,0.0836,0.0781,0.0676,0.0534,0.0384,0.0163,0.0181,0.0034,-0.0011,0.0065,0.0065,0.0108,0.0113,0.0079,0.008,0.0081,0.0082,0,0.0694,0.0711,0.076,0.0806,0.0817,0.0856,0.0905,0.0919,0.0932,0.0955,0.0954,0.0826,0.0642,0.0498,0.0259,0.0156,-0.0062,-0.0138,-0.0047,-0.0079,-0.0157,-0.0147,-0.0308,-0.0312,-0.0315,-0.0317,-0.032,0,0.07,0.0716,0.0787,0.0813,0.0847,0.0894,0.0915,0.0945,0.0962,0.0939,0.0936,0.0781,0.0632,0.0249,0.0072,-0.0173,-0.018,-0.0289,-0.0224,-0.0173,-0.02,-0.0184,-0.017,-0.0192,-0.0193,-0.0194,-0.0195,0,0.0697,0.0727,0.0759,0.0831,0.087,0.0917,0.0969,0.0975,0.103,0.0988,0.0872,0.0732,0.0474,0.0195,-0.0079,-0.0228,-0.024,-0.0317,-0.0303,-0.0106,-0.0078,-0.01,-0.0087,-0.0202,-0.0202,-0.0201,-0.0201,-0.02,0.0691,0.0721,0.0776,0.0835,0.0885,0.0949,0.0983,0.1021,0.1008,0.0993,0.0819,0.0638,0.0379,-0.0003,-0.0207,-0.0313,-0.0323,-0.0382,-0.0373,-0.0365,-0.0327,-0.0306,-0.0467,-0.0468,-0.0468,-0.0469,-0.0469,0,0.0664,0.0721,0.0772,0.0863,0.0917,0.0961,0.1015,0.1012,0.1006,0.0957,0.0832,0.0473,0.0195,-0.0016,-0.0168,-0.0354,-0.0278,-0.0403,-0.0266,-0.026,-0.0254,-0.0204,-0.0315,-0.0315,-0.0315,-0.0315,0,0,0.066,0.0688,0.0717,0.0829,0.0924,0.0979,0.1011,0.1007,0.0983,0.0817,0.0718,0.0507,0.0213,0.008,-0.0131,-0.0185,-0.0161,-0.0185,-0.0294,-0.01,-0.009,-0.0238,-0.0156,0,0,0,0,0]}],[{"header":{"parameterUnit":"m.s-1","parameterCategory":2,"la1":30.2991,"la2":30.254,"lo1":-89.0895,"lo2":-89.0444,"dy":0.0017,"dx":0.0017,"nx":28,"ny":28,"refTime":"2025-06-16T21:00:00:Z","depth":"4","parameterNumber":2,"parameterNumberName":"U-component_of_CURRENTS"},"data":[0,0,0,0,0,0,0,0,0,0,0,0,0,0,0,0,0,0,0,0,0,0,0,0,0,0,0,0,0,0,0,0,0,0,0,0,0,0,0,0,0,0,0,0,0,0,0,0,0,0,0,0,0,0,0,0,0,0,0.0002,0.0002,0,0.0028,0.0028,0.0029,0.0058,0.0058,0.0058,0.0059,0.0047,0.0046,0.0046,0,0,0,0,0,0,0,0,0,0,0,0,0,-0.0006,-0.0006,0.0002,0.0002,0.0002,0.0028,0.0028,0.0029,0.0058,0.0058,0.0059,0.0059,0.0047,0.0046,0.0046,0,0,0,0,0,0,0,0,0,0,0,0,0,0.0009,-0.0006,0.0002,0.0017,0.0019,0.0027,0.0028,0.0029,0.0058,0.0058,0.0059,0.0059,0.0047,0.0046,0.0046,0.0036,0,0,0.0044,0.0043,0,0,0,0,0,0,0,0,0.0008,0.001,0.0015,0.0016,0.0018,0.0037,0.0021,0.0028,0.0058,0.0046,0.0059,0.0059,0.0038,0.0038,0.0047,0.0035,0.0035,0.0043,0.0043,0.0043,0.0042,0,0,0,0,0,0,0,0.0007,0.0009,0.0015,0.0015,0.0017,0.0029,0.0031,0.0023,0.0042,0.0047,0.0049,0.0047,0.0039,0.0048,0.0047,0.0035,0.0043,0.0043,0.0042,0.0042,0.0019,0.0019,0,0,0,0,0,0,-0.0003,0.0008,0.0014,0.0015,0.001,0.0028,0.0031,0.0033,0.0043,0.0044,0.0047,0.0048,0.0049,0.0048,0.0046,0.004,0.0043,0.0042,0.0042,0.0019,0.0019,0.0019,0,0,0,0,0,0,-0.0003,-0.0003,0.0013,0.001,0.0012,0.0028,0.003,0.0034,0.0048,0.0042,0.0043,0.0058,0.0049,0.0047,0.0047,0.0039,0.0042,0.0041,0.002,0.0019,0.0019,0.0023,0,0,0,0,0,0,-0.0004,-0.0003,0.0,0.0009,0.0012,0.0024,0.0029,0.0034,0.0045,0.0048,0.0052,0.0051,0.0049,0.0048,0.0046,0.0038,0.004,0.002,0.0019,0.0019,0.0023,0.0023,0.0023,0,0,0,0,0,-0.0004,-0.0001,0.0,0.0001,0.0014,0.0024,0.0028,0.0041,0.0045,0.0055,0.0057,0.0051,0.0044,0.0047,0.0045,0.0037,0.002,0.0019,0.0019,0.0023,0.0023,0.0023,0,0,0,0,0,0,-0.0008,0.0002,0.0004,0.0008,0.0017,0.0028,0.0038,0.0043,0.0054,0.0057,0.0053,0.0052,0.0046,0.0042,0.0046,0.0029,0.0029,0.0028,0.0033,0.0033,0.0033,0.0042,0.004,0,0,0,0,0,-0.0008,0.0001,0.0007,0.0011,0.0017,0.0028,0.0035,0.0043,0.005,0.0056,0.0054,0.005,0.0042,0.0039,0.0033,0.0026,0.0032,0.0018,0.0018,0.0018,0.0024,0.002,0.002,0.0018,0.0018,0.0018,0,0,-0.0012,-0.0004,-0.0001,0.0011,0.0022,0.0031,0.0034,0.0048,0.0054,0.005,0.0059,0.005,0.004,0.0034,0.003,0.003,0.0025,0.0017,0.0017,0.0024,0.0019,0.002,0.002,0.0017,0.0017,0.0017,0,0,-0.001,-0.0003,0.0007,0.0016,0.0031,0.0038,0.0041,0.0053,0.0061,0.0064,0.0059,0.0051,0.0042,0.0034,0.0028,0.0022,0.0024,0.0015,0.0021,0.0017,0.0017,0.0018,0.004,0.0042,0.0014,0.0014,0.0014,0,-0.0015,-0.0001,0.0011,0.0023,0.003,0.004,0.0051,0.0058,0.0066,0.0068,0.0068,0.0053,0.0042,0.0032,0.0029,0.0022,0.0029,0.0023,0.0017,0.0018,0.0018,0.004,0.0043,0.0014,0.0014,0.0014,0.0014,0,-0.0005,0.0007,0.0015,0.0035,0.0043,0.0055,0.0063,0.0071,0.0075,0.0077,0.0072,0.006,0.0052,0.004,0.0033,0.0024,0.0033,0.0018,0.0019,0.0019,0.0042,0.0045,0.0015,0.0015,0.0015,0.0015,0,0,-0.0016,0.0015,0.002,0.0032,0.0052,0.006,0.0069,0.008,0.0087,0.0085,0.0088,0.0068,0.0064,0.0056,0.0042,0.0034,0.0042,0.0028,0.0027,0.0054,0.0054,0.0079,0.0085,0.0024,0.0024,0.0024,0.0075,0,-0.001,0.0014,0.0029,0.005,0.0062,0.0074,0.0082,0.009,0.0096,0.01,0.0087,0.0084,0.0069,0.0064,0.0054,0.0042,0.0046,0.0031,0.0048,0.0049,0.0074,0.0087,0.0024,0.0077,0.0078,0.0078,0.0078,0,-0.0005,0.0014,0.0035,0.0061,0.0068,0.008,0.0098,0.0107,0.0113,0.0115,0.0111,0.0106,0.0098,0.0081,0.0077,0.0068,0.0066,0.0059,0.006,0.0084,0.0078,0.0074,0.0083,0.0082,0.0082,0.0082,0.0081,0,-0.0016,0.0017,0.0036,0.0045,0.0073,0.0084,0.0098,0.011,0.012,0.0127,0.0135,0.0126,0.0128,0.0115,0.0106,0.0092,0.0106,0.0085,0.0112,0.0115,0.0074,0.0073,0.0087,0.0087,0.0087,0.0087,0.0087,0,-0.0017,-0.0002,0.0035,0.0043,0.0064,0.0084,0.0103,0.0113,0.013,0.0139,0.0143,0.0148,0.0135,0.0139,0.0123,0.0136,0.0124,0.0126,0.0128,0.0077,0.0075,0.0077,0.0075,0.0089,0.0088,0.0088,0.0088,0,-0.0035,-0.001,0.0009,0.0044,0.0058,0.0069,0.0105,0.0114,0.0139,0.0151,0.0157,0.0172,0.0184,0.0182,0.0173,0.0171,0.0169,0.0175,0.0149,0.0146,0.018,0.0178,0.0219,0.0221,0.0222,0.0223,0.0223,0,-0.0039,-0.0032,0.0002,0.0015,0.0032,0.0058,0.0072,0.0106,0.0117,0.016,0.0159,0.0193,0.0198,0.0225,0.0211,0.0218,0.0206,0.0226,0.018,0.0196,0.0193,0.0189,0.0185,0.0225,0.0225,0.0226,0.0226,0,-0.0056,-0.0049,-0.0036,-0.0008,0.0012,0.0034,0.006,0.0077,0.0115,0.0137,0.0177,0.0204,0.0228,0.0234,0.0256,0.0244,0.0221,0.0237,0.0233,0.019,0.0203,0.0199,0.0194,0.023,0.0229,0.0229,0.0229,0,-0.0076,-0.0075,-0.0058,-0.0031,-0.0011,0.0013,0.0033,0.0068,0.0096,0.0154,0.016,0.0197,0.0219,0.0248,0.025,0.0266,0.0256,0.0253,0.0249,0.0245,0.0227,0.0246,0.0298,0,0,0,0,0,-0.0095,-0.0092,-0.0076,-0.0045,-0.0025,-0.0006,0.0026,0.0047,0.009,0.012,0.0151,0.0173,0.0219,0.0232,0.0252,0.0248,0.0244,0.0271,0.0234,0.0251,0.0246,0.0223,0,0,0,0,0,0,-0.0108,-0.0102,-0.0086,-0.0058,-0.0036,-0.0011,0.0012,0.0041,0.0068,0.0112,0.0132,0.0174,0.0205,0.0202,0.0248,0.0254,0.0234,0.0295,0.0296,0.0253,0.0249,0.0246,0.022,0,0,0,0,0]},{"header":{"parameterUnit":"m.s-1","parameterCategory":2,"la1":30.2991,"la2":30.254,"lo1":-89.0895,"lo2":-89.0444,"dy":0.0017,"dx":0.0017,"nx":28,"ny":28,"refTime":"2025-06-16T21:00:00:Z","depth":"4","parameterNumber":3,"parameterNumberName":"V-component_of_CURRENTS"},"data":[0,0,0,0,0,0,0,0,0,0,0,0,0,0,0,0,0,0,0,0,0,0,0,0,0,0,0,0,0,0,0,0,0,0,0,0,0,0,0,0,0,0,0,0,0,0,0,0,0,0,0,0,0,0,0,0,0,0,-0.0341,-0.0342,0,-0.0408,-0.0409,-0.041,-0.0487,-0.0488,-0.0489,-0.049,-0.0618,-0.0621,-0.0623,0,0,0,0,0,0,0,0,0,0,0,0,0,-0.0244,-0.0245,-0.0341,-0.0342,-0.0343,-0.0408,-0.0409,-0.041,-0.0486,-0.0488,-0.0489,-0.049,-0.0618,-0.062,-0.0623,0,0,0,0,0,0,0,0,0,0,0,0,0,-0.0297,-0.0246,-0.0341,-0.0388,-0.0393,-0.0408,-0.0409,-0.0411,-0.0486,-0.0488,-0.0489,-0.0491,-0.0617,-0.062,-0.0624,-0.0614,0,0,-0.0635,-0.0636,0,0,0,0,0,0,0,0,-0.0294,-0.03,-0.038,-0.0385,-0.039,-0.044,-0.0422,-0.0481,-0.0486,-0.0451,-0.049,-0.0492,-0.0563,-0.0571,-0.058,-0.062,-0.0626,-0.0635,-0.0637,-0.0639,-0.064,0,0,0,0,0,0,0,-0.029,-0.0298,-0.0368,-0.0381,-0.0387,-0.0394,-0.0404,-0.0433,-0.0499,-0.0455,-0.046,-0.0466,-0.0566,-0.0576,-0.0584,-0.0627,-0.0635,-0.0638,-0.0641,-0.0642,-0.0751,-0.0752,0,0,0,0,0,0,-0.028,-0.0294,-0.0366,-0.037,-0.0344,-0.0394,-0.0405,-0.0423,-0.0498,-0.051,-0.0464,-0.0469,-0.0569,-0.058,-0.0589,-0.0663,-0.0639,-0.0642,-0.0644,-0.075,-0.0751,-0.0752,0,0,0,0,0,0,-0.0278,-0.0287,-0.0364,-0.0332,-0.0343,-0.0394,-0.0414,-0.0424,-0.0473,-0.0504,-0.0518,-0.0509,-0.0571,-0.0584,-0.0652,-0.0666,-0.0644,-0.0647,-0.0749,-0.0751,-0.0752,-0.0759,0,0,0,0,0,0,-0.0275,-0.0286,-0.0308,-0.0332,-0.0344,-0.0388,-0.0412,-0.0424,-0.0472,-0.048,-0.0546,-0.0557,-0.0573,-0.0646,-0.0655,-0.067,-0.065,-0.0749,-0.075,-0.0751,-0.0758,-0.076,-0.0762,0,0,0,0,0,-0.0272,-0.0296,-0.0309,-0.0318,-0.037,-0.0388,-0.0396,-0.0437,-0.0473,-0.049,-0.0547,-0.0557,-0.066,-0.065,-0.0661,-0.0677,-0.0748,-0.075,-0.0751,-0.0757,-0.076,-0.0762,0,0,0,0,0,0,-0.0275,-0.0306,-0.0322,-0.0358,-0.0377,-0.0402,-0.0429,-0.0456,-0.0513,-0.054,-0.0575,-0.059,-0.0651,-0.0664,-0.0652,-0.0711,-0.0702,-0.0706,-0.0703,-0.0706,-0.0708,-0.0694,-0.0653,0,0,0,0,0,-0.0281,-0.0307,-0.0329,-0.036,-0.0373,-0.0407,-0.0428,-0.0456,-0.0499,-0.0528,-0.0577,-0.0624,-0.0657,-0.0685,-0.0717,-0.0756,-0.0739,-0.077,-0.0772,-0.0774,-0.0769,-0.0753,-0.0753,-0.0757,-0.0757,-0.0757,0,0,-0.029,-0.0312,-0.0328,-0.0362,-0.0387,-0.0403,-0.0426,-0.0467,-0.0493,-0.0532,-0.0607,-0.0642,-0.0671,-0.0713,-0.074,-0.0733,-0.0764,-0.0776,-0.0777,-0.0771,-0.0754,-0.0754,-0.0753,-0.0758,-0.0758,-0.0758,0,0,-0.0302,-0.0343,-0.0359,-0.0377,-0.0413,-0.0428,-0.0447,-0.0492,-0.053,-0.0587,-0.0621,-0.0669,-0.0729,-0.0745,-0.0759,-0.0792,-0.0778,-0.0806,-0.0806,-0.0791,-0.079,-0.0789,-0.0762,-0.0759,-0.0804,-0.0804,-0.0804,0,-0.0309,-0.0337,-0.0366,-0.0383,-0.0403,-0.0443,-0.046,-0.0494,-0.056,-0.0588,-0.0616,-0.0702,-0.0736,-0.0766,-0.078,-0.0797,-0.0781,-0.0794,-0.0792,-0.079,-0.0789,-0.0762,-0.0758,-0.0805,-0.0805,-0.0805,-0.0805,0,-0.0322,-0.0352,-0.0368,-0.0399,-0.0422,-0.0449,-0.0485,-0.0529,-0.0582,-0.0609,-0.0674,-0.0718,-0.0761,-0.0778,-0.0794,-0.0804,-0.0794,-0.0797,-0.078,-0.0789,-0.0761,-0.0756,-0.0806,-0.0805,-0.0805,-0.0805,0,0,-0.0315,-0.0363,-0.0371,-0.0385,-0.0437,-0.0451,-0.05,-0.0537,-0.0567,-0.0636,-0.0668,-0.0732,-0.076,-0.0776,-0.0801,-0.0796,-0.0779,-0.0795,-0.0794,-0.076,-0.0735,-0.0709,-0.0702,-0.0781,-0.078,-0.078,-0.0717,0,-0.0315,-0.0338,-0.0369,-0.04,-0.0415,-0.0463,-0.0496,-0.0542,-0.0587,-0.0629,-0.0677,-0.0718,-0.0756,-0.0777,-0.0781,-0.0782,-0.0769,-0.0795,-0.074,-0.0738,-0.0706,-0.0696,-0.0778,-0.0713,-0.0712,-0.0711,-0.0711,0,-0.0318,-0.0331,-0.0355,-0.0395,-0.0408,-0.0439,-0.0493,-0.0526,-0.0583,-0.0618,-0.0664,-0.0698,-0.0725,-0.0745,-0.0743,-0.0758,-0.0747,-0.0742,-0.0739,-0.0707,-0.0704,-0.0706,-0.0703,-0.0703,-0.0704,-0.0704,-0.0705,0,-0.0292,-0.0326,-0.0344,-0.036,-0.0408,-0.0442,-0.0477,-0.0534,-0.0555,-0.0609,-0.0617,-0.0666,-0.0675,-0.0684,-0.0688,-0.0713,-0.0658,-0.0687,-0.0649,-0.0646,-0.0685,-0.0686,-0.0664,-0.0664,-0.0664,-0.0665,-0.0665,0,-0.0283,-0.0299,-0.0339,-0.0351,-0.0378,-0.0427,-0.0463,-0.0504,-0.0544,-0.0543,-0.0611,-0.0602,-0.0658,-0.0641,-0.0659,-0.0631,-0.0632,-0.0639,-0.0627,-0.069,-0.0693,-0.0681,-0.0683,-0.0662,-0.0663,-0.0663,-0.0664,0,-0.0267,-0.029,-0.0308,-0.0354,-0.0371,-0.0398,-0.045,-0.0461,-0.0506,-0.0501,-0.0511,-0.0541,-0.0531,-0.0563,-0.0555,-0.0572,-0.056,-0.0543,-0.0586,-0.0579,-0.0568,-0.0572,-0.0509,-0.0508,-0.0506,-0.0505,-0.0504,0,-0.0264,-0.0271,-0.0304,-0.0312,-0.0344,-0.0382,-0.0398,-0.0447,-0.044,-0.0446,-0.0421,-0.0426,-0.0444,-0.0413,-0.0459,-0.0481,-0.049,-0.0478,-0.0556,-0.0556,-0.0551,-0.0558,-0.0563,-0.0502,-0.0502,-0.0502,-0.0501,0,-0.0251,-0.0268,-0.0276,-0.0287,-0.0309,-0.032,-0.0343,-0.0332,-0.0355,-0.0371,-0.0337,-0.0358,-0.0339,-0.0378,-0.0387,-0.0407,-0.0493,-0.0466,-0.047,-0.0544,-0.0548,-0.0545,-0.0552,-0.0497,-0.0498,-0.0498,-0.0498,0,-0.0245,-0.0243,-0.0251,-0.0264,-0.0271,-0.0272,-0.029,-0.0277,-0.028,-0.0282,-0.0252,-0.0281,-0.0295,-0.0333,-0.0335,-0.0363,-0.0396,-0.0417,-0.0424,-0.043,-0.0443,-0.0439,-0.0332,0,0,0,0,0,-0.0239,-0.023,-0.0227,-0.0237,-0.0238,-0.025,-0.0247,-0.0257,-0.0253,-0.0217,-0.0245,-0.0233,-0.027,-0.0287,-0.0312,-0.0332,-0.0407,-0.0361,-0.0436,-0.0473,-0.0478,-0.0508,0,0,0,0,0,0,-0.0233,-0.0225,-0.0216,-0.0208,-0.0212,-0.0213,-0.0217,-0.0218,-0.0202,-0.0202,-0.0221,-0.0231,-0.027,-0.0256,-0.0309,-0.0318,-0.0367,-0.0381,-0.0382,-0.047,-0.0475,-0.0479,-0.0511,0,0,0,0,0]}]]